Tracking 19909 objects as of 23-Oct-2019
HD Live streaming from Space Station
objects crossing your sky now

ATLAS CENTAUR R/B


ATLAS CENTAUR R/B is no longer on orbit


NORAD ID: 16102
Int'l Code: 1985-087B
Perigee: N/A
Apogee: N/A
Inclination: N/A
Period: N/A
Semi major axis: N/A
RCS: N/A
Launch date: September 28, 1985
Source: United States (US)
Launch site: AIR FORCE EASTERN TEST RANGE (AFETR)
Decay date: 2012-04-20

Note: This is a ROCKET BODY
aabbcc
Your satellite tracking list
Your tracking list is empty




NASA's NSSDC Master Catalog

Two Line Element Set (TLE):
1 16102U 85087B   12110.94601296  .39429391 -14412-4  15386-2 0  9992
2 16102 022.7622 338.7206 0160260 014.5472 103.0730 16.13230618340912
Source of the keplerian elements: AFSPC